Weather History for Boston, MA

Change the Weather History Date:

Wednesday, January 2, 2013

  Actual Average Record
Temperature  
Mean Temperature 21 °F 30 °F  
Max Temperature 30 °F 37 °F 66 °F (1890)
Min Temperature 12 °F 23 °F -3 °F (1899)
Degree Days  
Heating Degree Days 44 35  
Month to date heating degree days 80 70  
Since 1 July heating degree days 1910 2064  
Cooling Degree Days 0 0  
Month to date cooling degree days 0 0  
Year to date cooling degree days 0 0  
Moisture  
Dew Point 6 °F    
Average Humidity 53    
Maximum Humidity 58    
Minimum Humidity 47    
Precipitation  
Precipitation T in 0.11 in 2.24 in (1987)
Month to date precipitation T 0.22  
Year to date precipitation T 0.22  
Snow  
Snow 0.00 in 0.40 in 8.00 in (1904)
Month to date snowfall 0.0 0.8  
Since 1 July snowfall 3.8 11.1  
Snow Depth 0.00 in    
Sea Level Pressure  
Sea Level Pressure 29.98 in    
Wind  
Wind Speed 14 mph (WNW)    
Max Wind Speed 24 mph    
Max Gust Speed 32 mph    
Visibility 10 miles    
Events      
T = Trace of Precipitation, MM = Missing Value Source: NWS Daily Summary

Daily Weather History Graph

Daily Weather History Graph

Search for Another Location

Airport:

Trip Planner

Search our weather history database for the weather conditions in past years. The results will help you decide how hot, cold, wet, or windy it might be!

Date:

Astronomy

Jan. 02, 2013 Rise Set
Actual Time 7:13 AM EST 4:23 PM EST
Civil Twilight 6:41 AM EST 4:55 PM EST
Nautical Twilight 6:06 AM EST 5:30 PM EST
Astronomical Twilight 5:32 AM EST 6:04 PM EST
Moon 9:59 PM EST (1/2) 9:47 AM EST (1/2)
Length of Visible Light 10h 13m
Length of Day
9h 09m
Waning Gibbous, 75% of the Moon is Illuminated
Jan 2
Waning Gibbous
Jan 4
Last Quarter
Jan 11
New
Jan 18
First Quarter
Jan 26
Full

Hourly Weather History & Observations

Time (EST) Temp. Windchill Dew Point Humidity Pressure Visibility Wind Dir Wind Speed Gust Speed Precip Events Conditions
12:54 AM 19.0 °F 7.5 °F 3.0 °F 50% 29.94 in 10.0 mi WNW 10.4 mph - N/A   Partly Cloudy
1:54 AM 18.0 °F 4.8 °F 1.9 °F 50% 29.96 in 10.0 mi WNW 12.7 mph - N/A   Partly Cloudy
2:54 AM 18.0 °F 7.7 °F 1.9 °F 50% 29.96 in 10.0 mi WNW 8.1 mph - N/A   Clear
3:54 AM 18.0 °F 6.9 °F 1.9 °F 50% 29.95 in 10.0 mi West 9.2 mph - N/A   Clear
4:54 AM 18.0 °F 4.8 °F 3.0 °F 52% 29.94 in 10.0 mi WNW 12.7 mph - N/A   Clear
5:54 AM 17.1 °F 5.0 °F 3.9 °F 56% 29.94 in 10.0 mi WNW 10.4 mph - N/A   Clear
6:54 AM 18.0 °F 6.9 °F 5.0 °F 57% 29.94 in 10.0 mi West 9.2 mph - N/A   Scattered Clouds
7:54 AM 19.0 °F 7.5 °F 7.0 °F 59% 29.94 in 10.0 mi West 10.4 mph - N/A   Scattered Clouds
8:54 AM 21.0 °F 9.9 °F 7.0 °F 55% 29.93 in 10.0 mi West 10.4 mph 18.4 mph N/A   Scattered Clouds
9:54 AM 23.0 °F 12.4 °F 9.0 °F 55% 29.95 in 10.0 mi West 10.4 mph - N/A   Scattered Clouds
10:54 AM 26.1 °F 13.1 °F 10.9 °F 53% 29.93 in 10.0 mi WNW 17.3 mph 25.3 mph N/A   Mostly Cloudy
11:54 AM 28.9 °F 18.2 °F 12.0 °F 49% 29.91 in 10.0 mi West 13.8 mph 23.0 mph N/A   Mostly Cloudy
12:54 PM 28.9 °F 15.8 °F 12.0 °F 49% 29.90 in 10.0 mi WNW 20.7 mph 31.1 mph N/A   Mostly Cloudy
1:54 PM 28.9 °F 16.9 °F 12.0 °F 49% 29.91 in 10.0 mi WNW 17.3 mph 21.9 mph N/A   Scattered Clouds
2:54 PM 28.0 °F 16.1 °F 12.0 °F 51% 29.94 in 10.0 mi WNW 16.1 mph 24.2 mph N/A   Mostly Cloudy
3:54 PM 28.0 °F 16.5 °F 12.0 °F 51% 29.97 in 10.0 mi NW 15.0 mph 25.3 mph N/A   Mostly Cloudy
4:54 PM 26.1 °F 15.6 °F 12.0 °F 55% 30.00 in 10.0 mi NW 11.5 mph - 0.00 in   Scattered Clouds
5:54 PM 25.0 °F 12.2 °F 8.1 °F 49% 30.02 in 10.0 mi NW 16.1 mph 25.3 mph N/A   Scattered Clouds
6:54 PM 23.0 °F 10.1 °F 6.1 °F 48% 30.04 in 10.0 mi NW 15.0 mph 23.0 mph N/A   Clear
7:54 PM 21.0 °F 6.6 °F 5.0 °F 50% 30.05 in 10.0 mi WNW 17.3 mph 28.8 mph N/A   Clear
8:54 PM 19.9 °F 6.2 °F 3.9 °F 50% 30.06 in 10.0 mi WNW 15.0 mph 21.9 mph N/A   Clear
9:54 PM 18.0 °F 3.6 °F 3.9 °F 54% 30.08 in 10.0 mi NNW 15.0 mph 20.7 mph N/A   Clear
10:54 PM 14.0 °F -0.8 °F 1.0 °F 56% 30.10 in 10.0 mi NNW 13.8 mph 20.7 mph N/A   Clear
11:54 PM 12.0 °F -6.0 °F -2.0 °F 53% 30.09 in 10.0 mi NW 19.6 mph 28.8 mph N/A   Clear